1505613600.45,22873,12.75,73634.0,2.41,1.67,1.67,0,*76
1505613601.7,22874,12.75,73630.5,2.43,1.67,1.67,0,*73
1505613602.93,22875,12.75,73626.8,2.41,1.59,1.67,0,*7D
1505613604.15,22876,12.75,73624.8,2.41,1.67,1.59,0,*7E
1505613605.38,22877,12.75,73624.8,2.41,1.67,1.67,0,*72
1505613606.6,22878,12.75,73624.8,2.41,1.67,1.59,0,*70
1505613607.83,22879,12.75,73620.8,2.41,1.59,1.59,0,*7C
1505613609.06,22880,12.75,73634.0,2.41,1.67,1.67,0,*7A
1505613610.28,22881,12.75,73620.8,2.41,1.67,1.67,0,*7B
1505613611.51,22882,12.75,73634.8,2.41,1.67,1.59,0,*75
1505613612.73,22883,12.75,73630.8,2.41,1.67,1.59,0,*74
1505613613.96,22884,12.75,73632.8,2.41,1.67,1.67,0,*7E
1505613615.19,22885,12.75,73628.8,2.41,1.67,1.67,0,*7F
1505613616.44,22886,12.75,73626.3,2.43,1.67,1.67,0,*7E
1505613617.64,22887,12.75,73628.0,2.41,1.75,1.71,0,*79
1505613618.87,22888,12.75,73638.3,2.41,1.71,1.71,0,*72
1505613620.1,22889,12.75,73638.5,2.41,1.71,1.71,0,*73
1505613621.33,22890,12.75,73646.8,2.41,1.71,1.59,0,*71
1505613622.56,22891,12.75,73648.3,2.41,1.71,1.67,0,*7D
1505613623.79,22892,12.75,73642.8,2.41,1.67,1.67,0,*79
1505613625.01,22893,12.75,73646.3,2.41,1.67,1.67,0,*78
1505613626.26,22894,12.75,73646.8,2.43,1.67,1.59,0,*70
1505613627.49,22895,12.75,73642.8,2.41,1.67,1.67,0,*7E
1505613628.75,22896,12.75,73642.3,2.43,1.59,1.67,0,*72
1505613629.97,22897,12.75,73646.8,2.41,1.59,1.59,0,*7C
1505613631.19,22898,12.75,73646.0,2.41,1.67,1.59,0,*7E
1505613632.42,22899,12.75,73648.0,2.41,1.59,1.59,0,*72
1505613633.64,22900,12.75,73652.5,2.41,1.59,1.59,0,*73
1505613634.86,22901,12.75,73656.3,2.41,1.59,1.59,0,*72
1505613636.09,22902,12.75,73662.5,2.41,1.59,1.67,0,*7C
1505613637.32,22903,12.75,73660.5,2.41,1.67,1.59,0,*7D
1505613638.54,22904,12.75,73662.0,2.41,1.59,1.59,0,*77
1505613639.76,22905,12.75,73660.0,2.41,1.59,1.59,0,*76
1505613640.99,22906,12.75,73662.3,2.41,1.59,1.67,0,*78
1505613642.22,22907,12.75,73666.5,2.41,1.67,1.59,0,*79
1505613643.44,22908,12.75,73672.3,2.41,1.67,1.59,0,*76
1505613644.66,22909,12.75,73664.5,2.41,1.59,1.59,0,*7A
1505613645.89,22910,12.75,73670.0,2.41,1.59,1.67,0,*7F
1505613647.12,22911,12.75,73678.5,2.41,1.67,1.67,0,*73
1505613648.34,22912,12.75,73668.5,2.41,1.67,1.59,0,*7D
1505613649.55,22913,12.75,73662.3,2.43,1.75,1.75,0,*73
1505613650.76,22914,12.75,73656.3,2.41,1.75,1.71,0,*72
1505613651.99,22915,12.75,73624.5,2.41,1.71,1.71,0,*77
1505613653.21,22916,12.75,73662.8,2.41,1.67,1.67,0,*74
1505613654.47,22917,12.75,73664.0,2.43,1.67,1.67,0,*77
1505613655.72,22918,12.75,73664.3,2.43,1.67,1.67,0,*78
1505613656.95,22919,12.75,73658.0,2.41,1.67,1.67,0,*7B
1505613658.17,22920,12.75,73658.5,2.41,1.67,1.67,0,*71
1505613659.43,22921,12.75,73664.0,2.43,1.67,1.67,0,*72
1505613660.65,22922,12.75,73662.0,2.41,1.59,1.59,0,*73
1505613661.88,22923,12.75,73652.8,2.41,1.59,1.59,0,*72
1505613663.1,22924,12.75,73656.3,2.41,1.59,1.67,0,*78
1505613664.35,22925,12.75,73660.8,2.43,1.59,1.59,0,*76
1505613665.58,22926,12.75,73646.8,2.41,1.67,1.67,0,*77
1505613666.81,22927,12.75,73638.8,2.41,1.67,1.67,0,*76
1505613668.03,22928,12.75,73640.0,2.41,1.67,1.71,0,*7E
1505613669.26,22929,12.75,73630.3,2.41,1.67,1.71,0,*7F
1505613670.51,22930,12.75,73640.0,2.39,1.55,1.63,0,*7A
1505613671.74,22931,12.75,73636.3,2.41,1.59,1.59,0,*71
1505613672.99,22932,12.75,73654.3,2.43,1.67,1.67,0,*70
1505613674.22,22933,12.75,73642.3,2.41,1.67,1.67,0,*73
1505613675.44,22934,12.75,73638.0,2.41,1.59,1.67,0,*79
1505613676.7,22935,12.75,73646.3,2.43,1.67,1.67,0,*77
1505613677.93,22936,12.75,73648.5,2.41,1.67,1.67,0,*76
1505613679.15,22937,12.75,73664.8,2.41,1.59,1.67,0,*7A
1505613680.38,22938,12.75,73668.8,2.41,1.67,1.67,0,*78
1505613681.61,22939,12.75,73666.8,2.41,1.67,1.67,0,*79
1505613682.83,22940,12.75,73674.0,2.41,1.67,1.67,0,*77
1505613684.06,22941,12.75,73670.0,2.41,1.67,1.67,0,*76
1505613685.32,22942,12.75,73668.3,2.43,1.67,1.67,0,*77
1505613686.54,22943,12.75,73662.0,2.41,1.67,1.59,0,*79
1505613687.77,22944,12.75,73666.0,2.41,1.67,1.67,0,*73
1505613689.02,22945,12.75,73664.8,2.43,1.59,1.67,0,*7D
1505613690.27,22946,12.75,73666.0,2.43,1.67,1.59,0,*7E
1505613691.49,22947,12.75,73666.0,2.41,1.59,1.59,0,*70
1505613692.72,22948,12.75,73660.3,2.41,1.67,1.67,0,*7F
1505613693.97,22949,12.75,73660.3,2.43,1.67,1.67,0,*7C
1505613695.2,22950,12.75,73662.3,2.41,1.67,1.67,0,*76
1505613696.46,22951,12.75,73662.5,2.43,1.67,1.67,0,*75
1505613697.71,22952,12.75,73658.8,2.43,1.67,1.59,0,*7B
1505613698.93,22953,12.75,73652.5,2.41,1.67,1.67,0,*75
1505613700.16,22954,12.75,73648.3,2.41,1.67,1.67,0,*72
1505613701.39,22955,12.75,73652.5,2.41,1.67,1.67,0,*73
1505613702.61,22956,12.75,73656.3,2.41,1.67,1.59,0,*7D
1505613703.87,22957,12.75,73656.5,2.43,1.67,1.67,0,*73
1505613705.09,22958,12.75,73656.0,2.41,1.67,1.67,0,*7E
1505613706.32,22959,12.75,73658.5,2.41,1.59,1.67,0,*72
1505613707.55,22960,12.75,73648.8,2.41,1.67,1.67,0,*75
1505613708.77,22961,12.75,73656.8,2.41,1.67,1.67,0,*74
1505613710.03,22962,12.75,73656.0,2.43,1.59,1.59,0,*75
1505613711.25,22963,12.75,73650.8,2.41,1.59,1.59,0,*76
1505613712.47,22964,12.75,73648.3,2.41,1.59,1.59,0,*71
1505613713.7,22965,12.75,73656.3,2.41,1.59,1.67,0,*7D
1505613714.92,22966,12.75,73662.3,2.41,1.59,1.59,0,*73
1505613716.15,22967,12.75,73666.3,2.41,1.59,1.67,0,*7F
1505613717.37,22968,12.75,73658.5,2.41,1.59,1.59,0,*7D
1505613718.6,22969,12.75,73646.8,2.41,1.59,1.59,0,*7C
1505613719.83,22970,12.75,73652.5,2.41,1.55,1.55,0,*74
1505613721.07,22971,12.75,73656.5,2.41,1.55,1.55,0,*75
1505613722.29,22972,12.75,73656.8,2.41,1.59,1.59,0,*76
1505613723.55,22973,12.75,73650.3,2.39,1.55,1.55,0,*78
1505613724.8,22974,12.75,73644.0,2.39,1.63,1.63,0,*7F
1505613726.03,22975,12.75,73638.5,2.41,1.67,1.55,0,*70
1505613727.25,22976,12.75,73642.3,2.41,1.59,1.55,0,*7E
1505613728.48,22977,12.75,73650.0,2.41,1.59,1.55,0,*7F
1505613729.71,22978,12.75,73656.0,2.41,1.59,1.59,0,*7C
1505613730.93,22979,12.75,73656.3,2.41,1.59,1.59,0,*7D
1505613732.15,22980,12.75,73652.5,2.41,1.67,1.59,0,*76
1505613733.41,22981,12.75,73648.8,2.39,1.55,1.55,0,*75
1505613734.66,22982,12.75,73652.0,2.39,1.55,1.55,0,*76
1505613735.92,22983,12.75,73644.0,2.39,1.55,1.55,0,*77
1505613737.14,22984,12.75,73644.3,2.41,1.59,1.59,0,*7F
1505613738.38,22985,12.75,73644.8,2.41,1.55,1.55,0,*7E
1505613739.63,22986,12.75,73646.5,2.39,1.55,1.63,0,*77
1505613740.86,22987,12.75,73646.5,2.41,1.59,1.67,0,*71
1505613742.09,22988,12.75,73648.0,2.41,1.59,1.67,0,*7E
1505613743.31,22989,12.75,73658.5,2.41,1.67,1.59,0,*7F
1505613744.53,22990,12.75,73656.0,2.41,1.59,1.59,0,*7A
1505613745.76,22991,12.75,73648.3,2.41,1.67,1.59,0,*76
1505613746.98,22992,12.75,73646.0,2.41,1.59,1.59,0,*78
1505613748.23,22993,12.75,73642.3,2.39,1.63,1.63,0,*76
1505613749.48,22994,12.75,73640.0,2.39,1.63,1.63,0,*71
1505613750.73,22995,12.75,73642.5,2.39,1.63,1.63,0,*70
1505613751.99,22996,12.75,73654.3,2.39,1.55,1.55,0,*73
1505613753.24,22997,12.75,73652.3,2.39,1.63,1.55,0,*77
1505613754.5,22998,12.75,73648.5,2.39,1.55,1.55,0,*7D
1505613755.75,22999,12.75,73658.5,2.39,1.63,1.63,0,*7C
1505613757.0,23000,12.75,73662.8,2.39,1.63,1.63,0,*74
1505613758.25,23001,12.75,73664.3,2.39,1.63,1.63,0,*75
1505613759.5,23002,12.75,73664.3,2.39,1.55,1.63,0,*73
1505613760.75,23003,12.75,73668.3,2.39,1.63,1.63,0,*77
1505613762.0,23004,12.75,73660.5,2.39,1.63,1.63,0,*70
1505613763.25,23005,12.75,73668.0,2.39,1.63,1.63,0,*71
1505613764.5,23006,12.75,73682.8,2.39,1.63,1.63,0,*72
1505613765.73,23007,12.75,73678.3,2.41,1.63,1.67,0,*78
1505613766.96,23008,12.75,73670.0,2.41,1.67,1.71,0,*74
1505613768.19,23009,12.75,73668.0,2.41,1.71,1.71,0,*72
1505613769.44,23010,12.75,73682.8,2.43,1.71,1.71,0,*78
1505613770.67,23011,12.75,73676.8,2.41,1.71,1.71,0,*7B
1505613771.9,23012,12.75,73676.8,2.41,1.71,1.71,0,*78
1505613773.14,23013,12.75,73656.3,2.39,1.67,1.71,0,*71
1505613774.39,23014,12.75,73652.5,2.39,1.67,1.71,0,*76
1505613775.63,23015,12.75,73650.0,2.39,1.67,1.67,0,*70
1505613776.88,23016,12.75,73654.0,2.39,1.67,1.67,0,*73
1505613778.13,23017,12.75,73660.5,2.39,1.67,1.67,0,*72
1505613779.36,23018,12.75,73668.8,2.41,1.71,1.67,0,*75
1505613780.59,23019,12.75,73658.3,2.41,1.71,1.67,0,*74
1505613781.82,23020,12.75,73658.8,2.41,1.71,1.67,0,*7E
1505613783.05,23021,12.75,73662.3,2.41,1.67,1.67,0,*78
1505613784.28,23022,12.75,73670.5,2.41,1.59,1.67,0,*76
1505613785.5,23023,12.75,73666.5,2.41,1.67,1.67,0,*7A
1505613786.73,23024,12.75,73670.5,2.41,1.67,1.67,0,*7D
1505613787.96,23025,12.75,73662.0,2.41,1.67,1.67,0,*7C
1505613789.19,23026,12.75,73664.3,2.41,1.67,1.67,0,*7F
1505613790.41,23027,12.75,73668.5,2.41,1.59,1.67,0,*73
1505613791.64,23028,12.75,73672.5,2.41,1.67,1.67,0,*71
1505613792.87,23029,12.75,73670.3,2.41,1.67,1.67,0,*70
1505613794.09,23030,12.75,73664.8,2.41,1.67,1.67,0,*78
1505613795.32,23031,12.75,73666.8,2.41,1.67,1.67,0,*79
1505613796.55,23032,12.75,73670.3,2.41,1.59,1.67,0,*77
1505613797.8,23033,12.75,73664.5,2.39,1.55,1.63,0,*71
1505613799.03,23034,12.75,73666.0,2.41,1.59,1.67,0,*71
1505613800.26,23035,12.75,73670.0,2.41,1.67,1.67,0,*7D
1505613801.48,23036,12.75,73670.5,2.41,1.67,1.59,0,*73
1505613802.71,23037,12.75,73664.0,2.41,1.67,1.59,0,*72
1505613803.93,23038,12.75,73662.0,2.41,1.59,1.59,0,*70
1505613805.16,23039,12.75,73652.0,2.41,1.67,1.67,0,*71
1505613806.39,23040,12.75,73652.8,2.41,1.59,1.67,0,*72
1505613807.61,23041,12.75,73658.5,2.41,1.67,1.67,0,*7E
1505613808.84,23042,12.75,73672.5,2.41,1.67,1.67,0,*7D
1505613810.07,23043,12.75,73668.8,2.41,1.67,1.71,0,*7B
1505613811.29,23044,12.75,73668.3,2.41,1.67,1.71,0,*7C
1505613812.52,23045,12.75,73676.3,2.41,1.71,1.71,0,*7A
1505613813.75,23046,12.75,73660.3,2.41,1.71,1.71,0,*79
1505613814.96,23047,12.75,73658.0,2.41,1.71,1.75,0,*7C
1505613816.19,23048,12.75,73636.0,2.41,1.71,1.71,0,*77
1505613817.44,23049,12.75,73636.0,2.43,1.71,1.71,0,*74
1505613818.67,23050,12.75,73648.5,2.41,1.71,1.71,0,*7E
1505613819.87,23051,12.75,73636.3,2.41,1.75,1.71,0,*7B
1505613821.06,23052,12.75,73642.5,2.41,1.75,1.75,0,*7C
1505613822.27,23053,12.75,73640.3,2.43,1.75,1.75,0,*7F
1505613823.45,23054,12.69,73638.8,2.41,1.75,1.75,0,*7A
1505613824.64,23055,12.75,73640.3,2.41,1.83,1.83,0,*7B
1505613825.84,23056,12.75,73640.8,2.41,1.83,1.85,0,*7E
1505613827.05,23057,12.75,73648.5,2.43,1.83,1.83,0,*7B
1505613828.26,23058,12.75,73658.3,2.41,1.75,1.71,0,*72
1505613829.49,23059,12.75,73656.0,2.43,1.71,1.75,0,*71
1505613830.72,23060,12.75,73658.5,2.41,1.71,1.71,0,*7D
1505613831.98,23061,12.75,73662.3,2.43,1.71,1.71,0,*7E
1505613833.21,23062,12.75,73664.3,2.43,1.71,1.75,0,*79
1505613834.46,23063,12.75,73666.8,2.43,1.71,1.71,0,*7C
1505613835.65,23064,12.75,73664.5,2.41,1.75,1.75,0,*79
1505613836.83,23065,12.75,73670.3,2.41,1.75,1.75,0,*78
1505613838.07,23066,12.75,73672.5,2.43,1.71,1.75,0,*7D
1505613839.3,23067,12.75,73696.8,2.41,1.71,1.71,0,*7A
1505613840.48,23068,12.75,73680.8,2.41,1.75,1.75,0,*75
1505613841.75,23069,12.75,73656.0,2.43,1.85,1.85,0,*76
1505613842.99,23070,12.75,73664.3,2.43,1.85,1.83,0,*78
1505613844.2,23071,12.75,73664.0,2.43,1.83,1.83,0,*7F
1505613845.38,23072,12.75,73666.5,2.45,1.75,1.75,0,*7A
1505613846.56,23073,12.75,73672.3,2.45,1.75,1.75,0,*7B
1505613847.81,23074,12.75,73668.3,2.43,1.71,1.71,0,*7A
1505613849.07,23075,12.75,73668.3,2.43,1.71,1.71,0,*7B
1505613850.32,23076,12.75,73670.0,2.43,1.71,1.71,0,*78
1505613851.57,23077,12.75,73668.0,2.43,1.71,1.71,0,*79
1505613852.83,23078,12.75,73672.3,2.43,1.71,1.71,0,*76
1505613854.08,23079,12.75,73684.0,2.43,1.71,1.71,0,*77
1505613855.33,23080,12.75,73684.0,2.43,1.67,1.71,0,*76
1505613856.59,23081,12.75,73680.0,2.43,1.71,1.71,0,*70
1505613857.82,23082,12.75,73672.5,2.43,1.71,1.75,0,*77
1505613859.06,23083,12.75,73654.8,2.43,1.71,1.75,0,*76
1505613860.24,23084,12.75,73648.8,2.45,1.79,1.79,0,*73
1505613861.45,23085,12.75,73656.8,2.43,1.75,1.75,0,*74
1505613862.63,23086,12.75,73670.8,2.45,1.75,1.75,0,*71
1505613863.81,23087,12.75,73674.5,2.45,1.75,1.79,0,*7C
1505613864.99,23088,12.75,73674.5,2.45,1.75,1.75,0,*7F
1505613866.17,23089,12.75,73666.3,2.45,1.75,1.75,0,*7E
1505613867.43,23090,12.75,73666.3,2.43,1.71,1.71,0,*70
1505613868.61,23091,12.75,73670.3,2.45,1.75,1.75,0,*77
1505613869.79,23092,12.75,73698.3,2.45,1.75,1.75,0,*74
1505613871.0,23093,12.75,73690.8,2.45,1.71,1.75,0,*71
1505613872.18,23094,12.75,73680.8,2.45,1.79,1.79,0,*72
1505613873.36,23095,12.75,73678.3,2.45,1.79,1.79,0,*73
1505613874.61,23096,12.75,73670.0,2.43,1.71,1.71,0,*76
1505613875.84,23097,12.75,73660.3,2.43,1.75,1.71,0,*73
1505613877.05,23098,12.75,73642.3,2.45,1.71,1.75,0,*7A
1505613878.27,23099,12.75,73650.0,2.45,1.71,1.71,0,*7F
1505613879.5,23100,12.75,73664.5,2.45,1.63,1.71,0,*7D
1505613880.72,23101,12.75,73662.8,2.45,1.71,1.71,0,*7F
1505613881.97,23102,12.75,73656.8,2.43,1.59,1.59,0,*7A
1505613883.22,23103,12.75,73660.5,2.43,1.67,1.67,0,*7B
1505613884.45,23104,12.75,73660.3,2.45,1.71,1.71,0,*7A
1505613885.67,23105,12.75,73664.0,2.45,1.63,1.71,0,*78
1505613886.9,23106,12.75,73654.0,2.45,1.71,1.71,0,*78
1505613888.12,23107,12.75,73650.3,2.45,1.71,1.71,0,*79
1505613889.35,23108,12.75,73654.5,2.45,1.71,1.71,0,*76
1505613890.57,23109,12.75,73656.5,2.45,1.63,1.71,0,*74
1505613891.79,23110,12.75,73662.5,2.45,1.63,1.71,0,*7C
1505613893.05,23111,12.75,73650.3,2.43,1.67,1.67,0,*78
1505613894.28,23112,12.75,73652.3,2.41,1.67,1.67,0,*79
1505613895.53,23113,12.75,73656.0,2.43,1.67,1.67,0,*7A
1505613896.78,23114,12.75,73660.0,2.43,1.59,1.59,0,*7D
1505613898.03,23115,12.75,73648.8,2.43,1.67,1.67,0,*7C
1505613899.28,23116,12.75,73652.0,2.43,1.67,1.67,0,*7F
1505613900.54,23117,12.75,73652.5,2.43,1.67,1.67,0,*7E
1505613901.79,23118,12.75,73664.0,2.43,1.67,1.67,0,*71
1505613903.04,23119,12.75,73658.0,2.43,1.67,1.59,0,*7D
1505613904.3,23120,12.75,73656.0,2.43,1.67,1.67,0,*7A
1505613905.55,23121,12.75,73660.3,2.43,1.67,1.67,0,*7B
1505613906.77,23122,12.75,73660.0,2.45,1.67,1.71,0,*79
1505613907.99,23123,12.75,73654.8,2.45,1.63,1.71,0,*7C
1505613909.22,23124,12.75,73652.3,2.45,1.71,1.63,0,*7B
1505613910.44,23125,12.75,73654.3,2.45,1.67,1.71,0,*7E
1505613911.67,23126,12.75,73646.3,2.45,1.63,1.63,0,*7A
1505613912.92,23127,12.75,73654.0,2.43,1.59,1.67,0,*70
1505613914.17,23128,12.75,73652.3,2.43,1.67,1.59,0,*7F
1505613915.42,23129,12.75,73660.0,2.43,1.67,1.59,0,*7E
1505613916.68,23130,12.75,73660.5,2.43,1.67,1.67,0,*7B
1505613917.93,23131,12.75,73660.0,2.43,1.67,1.67,0,*7A
1505613919.18,23132,12.75,73662.0,2.43,1.59,1.67,0,*74
1505613920.43,23133,12.75,73666.0,2.43,1.59,1.59,0,*78
1505613921.68,23134,12.75,73664.5,2.43,1.67,1.59,0,*72
1505613922.91,23135,12.75,73674.5,2.41,1.59,1.67,0,*71
1505613924.16,23136,12.75,73668.5,2.43,1.59,1.59,0,*7D
1505613925.41,23137,12.75,73666.5,2.43,1.59,1.67,0,*71
1505613926.66,23138,12.75,73666.5,2.43,1.59,1.59,0,*73
1505613927.88,23139,12.75,73674.5,2.41,1.59,1.59,0,*70
1505613929.14,23140,12.75,73676.8,2.43,1.59,1.67,0,*71
1505613930.39,23141,12.75,73676.5,2.43,1.59,1.59,0,*7D
1505613931.64,23142,12.75,73680.8,2.43,1.67,1.59,0,*73
1505613932.89,23143,12.75,73690.5,2.43,1.67,1.59,0,*72
1505613934.14,23144,12.75,73684.5,2.43,1.67,1.59,0,*75
1505613935.39,23145,12.75,73688.5,2.43,1.59,1.59,0,*79
1505613936.64,23146,12.75,73688.5,2.43,1.59,1.55,0,*76
1505613937.89,23147,12.75,73684.0,2.43,1.47,1.59,0,*74
1505613939.12,23148,12.75,73670.3,2.41,1.55,1.47,0,*75
1505613940.37,23149,12.75,73676.3,2.43,1.59,1.59,0,*75
1505613941.62,23150,12.75,73678.5,2.43,1.59,1.59,0,*7D
1505613942.87,23151,12.75,73676.8,2.43,1.59,1.59,0,*7C
1505613944.13,23152,12.75,73666.0,2.43,1.67,1.67,0,*7F
1505613945.38,23153,12.75,73670.5,2.43,1.67,1.67,0,*7E
1505613946.59,23154,12.75,73656.5,2.43,1.75,1.75,0,*79
1505613947.82,23155,12.75,73666.5,2.41,1.71,1.71,0,*7A
1505613949.07,23156,12.75,73662.5,2.43,1.71,1.71,0,*7B
1505613950.33,23157,12.75,73670.3,2.43,1.71,1.71,0,*7A
1505613951.58,23158,12.75,73668.0,2.43,1.71,1.67,0,*72
1505613952.83,23159,12.75,73672.5,2.43,1.59,1.59,0,*74
1505613954.09,23160,12.75,73682.0,2.43,1.67,1.67,0,*7E
1505613955.31,23161,12.75,73676.3,2.41,1.59,1.67,0,*70
1505613956.54,23162,12.75,73672.5,2.41,1.67,1.59,0,*73
1505613957.79,23163,12.75,73660.8,2.43,1.59,1.59,0,*7D
1505613959.04,23164,12.75,73672.3,2.43,1.59,1.59,0,*7A
1505613960.29,23165,12.75,73664.0,2.43,1.67,1.59,0,*76
1505613961.54,23166,12.75,73666.3,2.43,1.67,1.67,0,*78
1505613962.79,23167,12.75,73646.8,2.43,1.67,1.67,0,*79
1505613964.02,23168,12.75,73658.8,2.45,1.71,1.71,0,*70
1505613965.27,23169,12.75,73656.8,2.43,1.67,1.67,0,*77
1505613966.45,23170,12.75,73652.0,2.45,1.79,1.75,0,*75
1505613967.71,23171,12.75,73646.0,2.43,1.71,1.71,0,*7E
1505613968.96,23172,12.75,73650.5,2.43,1.59,1.67,0,*70
1505613970.21,23173,12.75,73654.0,2.43,1.59,1.67,0,*71
1505613971.47,23174,12.75,73646.5,2.43,1.59,1.55,0,*77
1505613972.72,23175,12.75,73662.8,2.43,1.59,1.59,0,*7A
1505613973.97,23176,12.75,73656.0,2.43,1.59,1.59,0,*79
1505613975.22,23177,12.75,73646.0,2.43,1.67,1.55,0,*79
1505613976.47,23178,12.75,73648.8,2.43,1.59,1.59,0,*77
1505613977.72,23179,12.75,73646.0,2.43,1.67,1.59,0,*7B
1505613978.94,23180,12.75,73642.5,2.41,1.59,1.59,0,*72
1505613980.17,23181,12.75,73650.3,2.41,1.67,1.59,0,*7E
1505613981.42,23182,12.75,73642.8,2.43,1.59,1.59,0,*72
1505613982.67,23183,12.75,73646.3,2.43,1.67,1.67,0,*73
1505613983.92,23184,12.75,73650.0,2.43,1.59,1.59,0,*74
1505613985.17,23185,12.75,73662.5,2.43,1.59,1.67,0,*78
1505613986.43,23186,12.75,73674.3,2.43,1.67,1.67,0,*76
1505613987.68,23187,12.75,73678.5,2.43,1.59,1.59,0,*77
1505613988.93,23188,12.75,73676.3,2.43,1.59,1.67,0,*75
1505613990.18,23189,12.75,73672.3,2.43,1.67,1.67,0,*79
1505613991.44,23190,12.75,73662.5,2.43,1.67,1.71,0,*76
1505613992.69,23191,12.75,73656.5,2.43,1.67,1.71,0,*77
1505613993.89,23192,12.75,73656.3,2.45,1.75,1.71,0,*71
1505613995.14,23193,12.75,73654.0,2.43,1.71,1.71,0,*72
1505613996.39,23194,12.75,73668.0,2.43,1.71,1.71,0,*75
1505613997.62,23195,12.75,73676.0,2.41,1.59,1.71,0,*7C
1505613998.87,23196,12.75,73660.8,2.43,1.67,1.71,0,*70
1505614000.1,23197,12.75,73656.3,2.43,1.75,1.71,0,*72
1505614001.35,23198,12.75,73646.3,2.43,1.71,1.71,0,*79
1505614002.58,23199,12.75,73650.3,2.43,1.75,1.71,0,*7C
1505614003.84,23200,12.75,73644.5,2.43,1.71,1.71,0,*7B
1505614005.09,23201,12.75,73650.8,2.43,1.71,1.71,0,*7A
1505614006.35,23202,12.75,73648.3,2.43,1.71,1.71,0,*79
1505614007.6,23203,12.75,73650.0,2.43,1.67,1.67,0,*78
1505614008.85,23204,12.75,73662.0,2.43,1.67,1.67,0,*7F
1505614010.1,23205,12.75,73660.8,2.43,1.59,1.59,0,*7E
1505614011.36,23206,12.75,73662.5,2.43,1.67,1.67,0,*7D
1505614012.61,23207,12.75,73670.3,2.43,1.67,1.67,0,*7C
1505614013.86,23208,12.75,73678.8,2.43,1.67,1.67,0,*73
1505614015.12,23209,12.75,73680.3,2.43,1.67,1.67,0,*72
1505614016.37,23210,12.75,73666.5,2.43,1.67,1.67,0,*7A
1505614017.62,23211,12.75,73666.3,2.43,1.67,1.67,0,*7B
1505614018.87,23212,12.75,73666.8,2.43,1.67,1.59,0,*75
1505614020.13,23213,12.75,73668.0,2.43,1.59,1.67,0,*74
1505614021.38,23214,12.75,73668.8,2.43,1.67,1.67,0,*7E
1505614022.63,23215,12.75,73668.0,2.43,1.59,1.67,0,*72
1505614023.89,23216,12.75,73670.3,2.43,1.59,1.67,0,*71
1505614025.11,23217,12.75,73668.3,2.41,1.67,1.67,0,*7F
1505614026.37,23218,12.75,73674.0,2.43,1.67,1.67,0,*72
1505614027.62,23219,12.75,73670.0,2.43,1.59,1.67,0,*7E
1505614028.88,23220,12.75,73660.3,2.43,1.71,1.67,0,*7E
1505614030.13,23221,12.75,73664.5,2.43,1.71,1.71,0,*78
1505614031.37,23222,12.69,73664.5,2.43,1.71,1.75,0,*7F
1505614032.62,23223,12.69,73664.3,2.43,1.71,1.71,0,*7A
1505614033.87,23224,12.75,73668.3,2.43,1.71,1.71,0,*7D
1505614035.06,23225,12.69,73666.0,2.45,1.75,1.79,0,*76
1505614036.24,23226,12.75,73668.3,2.45,1.75,1.75,0,*79
1505614037.42,23227,12.75,73668.3,2.45,1.75,1.75,0,*78
1505614038.67,23228,12.75,73674.3,2.43,1.71,1.71,0,*71
1505614039.93,23229,12.75,73670.0,2.43,1.71,1.67,0,*77
1505614041.18,23230,12.69,73668.8,2.43,1.71,1.71,0,*78
1505614042.44,23231,12.75,73668.5,2.43,1.71,1.71,0,*79
1505614043.62,23232,12.75,73670.5,2.45,1.75,1.75,0,*7C
1505614044.8,23233,12.75,73668.3,2.45,1.75,1.75,0,*7D
1505614045.98,23234,12.69,73666.0,2.45,1.75,1.75,0,*7A
1505614047.18,23235,12.69,73668.8,2.45,1.75,1.63,0,*7C
1505614048.41,23236,12.75,73672.5,2.45,1.71,1.71,0,*78
1505614049.63,23237,12.69,73670.8,2.45,1.71,1.71,0,*79
1505614050.85,23238,12.75,73674.3,2.45,1.71,1.71,0,*76
1505614052.11,23239,12.75,73672.3,2.43,1.71,1.71,0,*71
1505614053.36,23240,12.75,73666.0,2.43,1.71,1.71,0,*7F
1505614054.54,23241,12.75,73662.3,2.45,1.75,1.75,0,*78
1505614055.77,23242,12.69,73662.5,2.45,1.71,1.71,0,*7B
1505614056.99,23243,12.75,73666.8,2.45,1.71,1.71,0,*7A
1505614058.22,23244,12.75,73660.8,2.45,1.63,1.63,0,*7D
1505614059.44,23245,12.75,73662.8,2.45,1.71,1.71,0,*7C
1505614060.67,23246,12.75,73656.8,2.45,1.71,1.71,0,*7F
1505614061.85,23247,12.75,73658.3,2.45,1.75,1.75,0,*7E
1505614063.03,23248,12.75,73660.0,2.45,1.75,1.75,0,*71
1505614064.25,23249,12.69,73656.5,2.45,1.63,1.71,0,*73
1505614065.48,23250,12.75,73664.3,2.45,1.71,1.63,0,*7B
1505614066.7,23251,12.75,73674.8,2.45,1.71,1.71,0,*79
1505614067.93,23252,12.75,73670.0,2.45,1.63,1.71,0,*79
1505614069.13,23253,12.75,73666.8,2.45,1.75,1.71,0,*7F
1505614070.39,23254,12.75,73664.3,2.43,1.71,1.67,0,*7D
1505614071.64,23255,12.75,73666.5,2.43,1.67,1.67,0,*7B
1505614072.9,23256,12.69,73664.0,2.43,1.71,1.67,0,*7F
1505614074.15,23257,12.69,73666.0,2.43,1.59,1.59,0,*79
1505614075.4,23258,12.69,73662.8,2.43,1.67,1.67,0,*76
1505614076.63,23259,12.75,73660.8,2.45,1.71,1.63,0,*72
1505614077.85,23260,12.69,73660.8,2.45,1.63,1.63,0,*7B
1505614079.08,23261,12.69,73664.5,2.45,1.71,1.63,0,*79
1505614080.3,23262,12.75,73666.3,2.45,1.63,1.71,0,*7A
1505614081.55,23263,12.69,73666.0,2.43,1.59,1.59,0,*7E
1505614082.81,23264,12.69,73668.8,2.43,1.59,1.67,0,*74
1505614084.05,23265,12.69,73664.5,2.43,1.59,1.59,0,*78
1505614085.31,23266,12.69,73666.3,2.43,1.59,1.67,0,*76
1505614086.56,23267,12.75,73672.8,2.43,1.59,1.67,0,*77
1505614087.81,23268,12.69,73674.3,2.43,1.67,1.67,0,*75
1505614089.04,23269,12.69,73672.8,2.41,1.67,1.59,0,*7B
1505614090.29,23270,12.69,73678.3,2.43,1.67,1.59,0,*71
1505614091.54,23271,12.75,73676.0,2.43,1.59,1.67,0,*70
1505614092.79,23272,12.69,73666.5,2.43,1.59,1.67,0,*73
1505614094.05,23273,12.69,73662.8,2.43,1.67,1.67,0,*7F
1505614095.28,23274,12.69,73662.0,2.41,1.67,1.67,0,*7A
1505614096.53,23275,12.69,73662.3,2.43,1.67,1.67,0,*79
1505614097.78,23276,12.75,73662.0,2.43,1.67,1.67,0,*7A
1505614099.03,23277,12.75,73668.3,2.43,1.67,1.59,0,*76
1505614100.29,23278,12.69,73672.0,2.43,1.67,1.67,0,*74
1505614101.54,23279,12.69,73672.5,2.43,1.67,1.59,0,*78
1505614102.79,23280,12.75,73668.5,2.43,1.67,1.59,0,*7E
1505614104.04,23281,12.69,73676.0,2.43,1.67,1.59,0,*7F
1505614105.29,23282,12.75,73674.8,2.43,1.67,1.67,0,*71
1505614106.54,23283,12.75,73672.3,2.43,1.67,1.59,0,*7D
1505614107.79,23284,12.69,73662.3,2.43,1.67,1.67,0,*77
1505614109.05,23285,12.69,73664.8,2.43,1.67,1.67,0,*76
1505614110.3,23286,12.69,73670.5,2.43,1.67,1.67,0,*75
1505614111.55,23287,12.75,73672.3,2.43,1.59,1.67,0,*79
1505614112.78,23288,12.69,73672.0,2.41,1.59,1.67,0,*74
1505614114.03,23289,12.75,73672.3,2.43,1.67,1.59,0,*77
1505614115.28,23290,12.75,73676.0,2.43,1.67,1.59,0,*7F
1505614116.53,23291,12.75,73674.8,2.43,1.67,1.67,0,*73
1505614117.79,23292,12.69,73664.8,2.43,1.67,1.67,0,*70
1505614119.0,23293,12.69,73662.3,2.43,1.75,1.75,0,*71
1505614120.23,23294,12.75,73664.8,2.43,1.71,1.75,0,*72
1505614121.46,23295,12.69,73660.3,2.43,1.75,1.71,0,*73
1505614122.65,23296,12.75,73660.0,2.41,1.75,1.75,0,*76
1505614123.88,23297,12.69,73654.0,2.43,1.71,1.75,0,*71
1505614125.14,23298,12.69,73656.8,2.43,1.71,1.71,0,*7A
1505614126.39,23299,12.69,73654.0,2.43,1.71,1.71,0,*7B
1505614127.65,23300,12.69,73650.8,2.43,1.71,1.67,0,*7D
1505614128.88,23301,12.69,73648.5,2.41,1.71,1.67,0,*7E
1505614130.14,23302,12.69,73648.8,2.43,1.71,1.67,0,*7F
1505614131.39,23303,12.69,73642.8,2.43,1.67,1.67,0,*79
1505614132.64,23304,12.69,73634.5,2.43,1.67,1.67,0,*7E
1505614133.89,23305,12.75,73666.8,2.43,1.59,1.59,0,*7F
1505614135.14,23306,12.69,73646.3,2.43,1.67,1.67,0,*7C
1505614136.4,23307,12.75,73646.5,2.43,1.67,1.67,0,*7D
1505614137.65,23308,12.69,73650.0,2.43,1.67,1.71,0,*75
1505614138.9,23309,12.69,73644.8,2.43,1.67,1.67,0,*73